CW2274 Weather Reports


Display with metric or nautical units.
time (UTC)temp
F
wind
direction
speed
MPH
gust
MPH
rain 1hr
in
rain 24hr
in
rain mn
in
humidity
%
barometer
mb
20260506134013 56 271 0.0 0.0 0.00 0.00 0.00 69 1017.5
20260506133530 57 271 0.0 0.0 0.00 0.00 0.00 70 1017.5
20260506133026 56 271 0.0 0.0 0.00 0.00 0.00 71 1017.4
20260506132522 55 271 0.0 0.0 0.00 0.00 0.00 73 1017.3
20260506132018 55 271 0.0 0.0 0.00 0.00 0.00 75 1017.3
20260506131514 54 271 0.0 0.0 0.00 0.00 0.00 76 1017.3
20260506131029 54 271 0.0 0.0 0.00 0.00 0.00 77 1017.2
20260506130525 53 271 0.0 0.0 0.00 0.00 0.00 77 1017.1
20260506130036 53 271 0.0 0.0 0.00 0.00 0.00 76 1017.1
20260506125518 52 271 0.0 0.0 0.00 0.00 0.00 77 1017.1
20260506125014 52 271 0.0 0.0 0.00 0.00 0.00 77 1017.1
20260506124529 52 273 0.0 0.0 0.00 0.00 0.00 77 1017.1
20260506124025 52 273 0.0 1.0 0.00 0.00 0.00 78 1017.0
20260506123521 51 273 0.0 1.0 0.00 0.00 0.00 78 1017.0
20260506123018 51 273 0.0 0.0 0.00 0.00 0.00 77 1017.0
20260506122518 52 273 0.0 0.0 0.00 0.00 0.00 76 1016.8
20260506122014 52 273 0.0 0.0 0.00 0.00 0.00 77 1016.8
20260506121530 52 273 0.0 0.0 0.00 0.00 0.00 78 1016.8
20260506121025 52 273 0.0 0.0 0.00 0.00 0.00 76 1016.7
20260506120521 53 273 0.0 0.0 0.00 0.00 0.00 77 1016.7
20260506120029 52 273 0.0 0.0 0.00 0.00 0.00 78 1016.7
20260506115530 52 273 0.0 0.0 0.00 0.02 0.00 76 1016.6
20260506115030 52 273 0.0 0.0 0.00 0.02 0.00 76 1016.6
20260506114526 53 273 0.0 0.0 0.00 0.02 0.00 75 1016.5
20260506114021 53 273 0.0 0.0 0.00 0.02 0.00 73 1016.6
20260506113517 54 273 0.0 0.0 0.00 0.02 0.00 72 1016.4
20260506113013 54 273 0.0 0.0 0.00 0.02 0.00 70 1016.4
20260506112529 54 273 0.0 0.0 0.00 0.02 0.00 71 1016.3
20260506112025 53 273 0.0 0.0 0.00 0.02 0.00 72 1016.3
20260506111525 54 273 0.0 0.0 0.00 0.02 0.00 71 1016.3
20260506111020 54 273 0.0 0.0 0.00 0.02 0.00 69 1016.3
20260506110516 54 273 0.0 0.0 0.00 0.02 0.00 70 1016.3
20260506110042 54 273 0.0 0.0 0.00 0.02 0.00 71 1016.2
20260506105523 54 273 0.0 0.0 0.00 0.03 0.00 71 1016.2
20260506105019 53 273 0.0 0.0 0.00 0.03 0.00 72 1016.2
20260506104515 54 273 0.0 0.0 0.00 0.03 0.00 69 1016.1
20260506104015 54 273 0.0 1.0 0.00 0.03 0.00 72 1016.1
20260506103531 54 273 0.0 1.0 0.00 0.03 0.00 72 1016.0
20260506103026 54 273 1.0 2.0 0.00 0.03 0.00 72 1015.9
20260506102522 54 273 1.0 2.0 0.00 0.03 0.00 70 1016.0
20260506102018 55 273 0.0 0.0 0.00 0.03 0.00 69 1016.0
20260506101514 54 273 0.0 0.0 0.00 0.03 0.00 71 1015.8
20260506101030 55 273 0.0 0.0 0.00 0.03 0.00 70 1015.8
20260506100526 55 273 0.0 0.0 0.00 0.03 0.00 69 1015.8
20260506100037 55 273 0.0 0.0 0.00 0.03 0.00 70 1015.8
20260506095518 54 273 0.0 0.0 0.00 0.05 0.00 73 1015.7
20260506095014 54 273 0.0 0.0 0.00 0.05 0.00 72 1015.7
20260506094530 55 273 0.0 0.0 0.00 0.05 0.00 71 1015.6
20260506094025 55 273 0.0 1.0 0.00 0.05 0.00 70 1015.5
20260506093521 55 273 0.0 1.0 0.00 0.05 0.00 70 1015.6
20260506093017 55 273 0.0 1.0 0.00 0.05 0.00 71 1015.6
20260506092518 55 273 0.0 0.0 0.00 0.05 0.00 69 1015.7
20260506092014 56 273 0.0 1.0 0.00 0.05 0.00 68 1015.6
20260506091529 56 273 0.0 1.0 0.00 0.05 0.00 68 1015.6
20260506091025 56 273 0.0 1.0 0.00 0.05 0.00 67 1015.7
20260506090521 56 273 0.0 1.0 0.00 0.05 0.00 67 1015.7
20260506090028 57 273 0.0 0.0 0.00 0.05 0.00 67 1015.8
20260506085530 57 273 0.0 0.0 0.00 0.08 0.00 68 1015.6
20260506085030 56 273 0.0 0.0 0.00 0.08 0.00 67 1015.7
20260506084525 57 273 0.0 0.0 0.00 0.08 0.00 65 1015.7
20260506084021 58 273 0.0 1.0 0.00 0.08 0.00 63 1015.7
20260506083517 58 273 0.0 2.0 0.00 0.08 0.00 62 1015.7
20260506083013 58 273 0.0 2.0 0.00 0.08 0.00 62 1015.7
20260506082528 58 273 0.0 2.0 0.00 0.08 0.00 63 1015.7
20260506082024 59 273 0.0 2.0 0.00 0.08 0.00 61 1015.8
20260506081524 59 273 0.0 2.0 0.00 0.08 0.00 60 1015.8
20260506081019 59 273 0.0 2.0 0.00 0.08 0.00 59 1015.9
20260506080515 59 273 1.0 6.0 0.00 0.08 0.00 61 1015.9
20260506073512 59 273 0.0 2.0 0.00 0.14 0.00 63 1015.9
20260506073027 59 273 0.0 2.0 0.00 0.14 0.00 61 1015.9
20260506072522 60 273 0.0 1.0 0.00 0.14 0.00 59 1015.9
20260506072038 60 273 0.0 1.0 0.00 0.14 0.00 59 1015.9
20260506071526 60 273 0.0 2.0 0.00 0.14 0.00 58 1015.8
20260506071022 60 273 0.0 2.0 0.00 0.14 0.00 59 1015.8
20260506070517 60 273 1.0 2.0 0.00 0.14 0.00 61 1015.7
20260506062025 62 282 1.0 6.0 0.00 0.19 0.14 56 1015.5
20260506061520 62 284 1.0 2.0 0.00 0.19 0.14 55 1015.6
20260506061016 63 284 0.0 4.0 0.00 0.19 0.14 54 1015.6
20260506060512 63 283 1.0 5.0 0.00 0.19 0.14 54 1015.5
20260506051014 65 288 1.0 7.0 0.00 0.23 0.14 50 1015.2
20260506050530 65 285 1.0 7.0 0.00 0.23 0.14 50 1015.2
20260506045014 65 292 1.0 4.0 0.00 0.26 0.14 50 1014.9
20260506044530 65 281 0.0 6.0 0.00 0.26 0.14 50 1014.9
20260506044026 65 277 2.0 7.0 0.00 0.26 0.14 49 1014.8
20260506043525 65 265 3.0 8.0 0.00 0.26 0.14 48 1014.8
20260506043021 66 289 3.0 8.0 0.00 0.26 0.14 48 1014.8
20260506042517 66 317 2.0 5.0 0.00 0.26 0.14 48 1014.8
20260506042033 66 339 1.0 3.0 0.00 0.26 0.14 47 1014.7
20260506041528 66 294 0.0 10.0 0.00 0.26 0.14 46 1014.6
20260506041024 66 293 3.0 10.0 0.00 0.26 0.14 45 1014.4
20260506040520 66 227 3.0 9.0 0.00 0.26 0.14 45 1014.2
20260506040031 66 269 3.0 9.0 0.00 0.26 0.14 45 1013.9
20260506035532 66 229 4.0 9.0 0.00 0.27 0.14 45 1013.8
20260506035028 67 251 4.0 11.0 0.00 0.27 0.14 45 1013.9
20260506034524 67 270 5.0 10.0 0.00 0.27 0.14 44 1013.8
20260506034020 67 240 3.0 11.0 0.00 0.27 0.14 44 1013.8
20260506033515 67 244 3.0 14.0 0.00 0.27 0.14 43 1013.7
20260506033031 67 262 6.0 14.0 0.00 0.27 0.14 42 1013.6
20260506032531 67 264 5.0 13.0 0.00 0.27 0.14 42 1013.5
20260506032027 67 242 4.0 13.0 0.00 0.27 0.14 40 1013.4
20260506031522 67 275 2.0 10.0 0.00 0.27 0.14 37 1013.4
20260506031018 68 274 3.0 11.0 0.00 0.27 0.14 36 1013.3
20260506030515 67 257 5.0 11.0 0.00 0.27 0.14 36 1013.3
20260506030042 67 266 5.0 10.0 0.00 0.27 0.14 36 1013.3
20260506025525 68 262 1.0 9.0 0.00 0.28 0.14 36 1013.2
20260506025024 68 277 3.0 8.0 0.00 0.28 0.14 35 1013.0
20260506024520 68 262 3.0 9.0 0.00 0.28 0.14 35 1013.1
20260506024016 68 271 4.0 9.0 0.00 0.28 0.14 34 1012.9
20260506023532 68 270 1.0 8.0 0.00 0.28 0.14 34 1012.7
20260506023027 68 267 2.0 9.0 0.00 0.28 0.14 33 1012.7
20260506022523 69 276 2.0 11.0 0.00 0.28 0.14 31 1012.6
20260506022019 69 279 4.0 11.0 0.00 0.28 0.14 31 1012.5
20260506021518 69 273 3.0 14.0 0.00 0.28 0.14 31 1012.2
20260506021014 69 273 6.0 14.0 0.00 0.28 0.14 31 1012.1
20260506020531 69 292 5.0 12.0 0.00 0.28 0.14 30 1012.0
20260506020039 70 279 4.0 12.0 0.00 0.28 0.14 30 1011.9
20260506015520 70 281 3.0 13.0 0.00 0.30 0.14 33 1011.9
20260506015015 70 250 3.0 11.0 0.00 0.30 0.14 31 1011.9
20260506014531 70 226 5.0 13.0 0.00 0.30 0.14 31 1011.9
20260506014027 70 263 6.0 14.0 0.00 0.30 0.14 31 1011.9
20260506013527 71 258 7.0 16.0 0.00 0.30 0.14 30 1011.8
20260506013022 71 277 6.0 16.0 0.00 0.30 0.14 31 1011.8
20260506012518 71 286 8.0 16.0 0.00 0.30 0.14 32 1011.8
20260506012014 71 255 6.0 13.0 0.00 0.30 0.14 32 1011.8
20260506011530 71 280 7.0 14.0 0.00 0.30 0.14 32 1011.8
20260506011026 71 285 7.0 17.0 0.00 0.30 0.14 32 1011.8
20260506010521 71 267 8.0 17.0 0.00 0.30 0.14 32 1011.7
20260506010032 72 274 9.0 15.0 0.00 0.30 0.14 32 1011.6
20260506005514 72 241 5.0 13.0 0.00 0.30 0.14 31 1011.7
20260506005029 72 250 3.0 13.0 0.00 0.30 0.14 31 1011.6
20260506004525 72 266 8.0 14.0 0.00 0.30 0.14 30 1011.5
20260506004021 73 269 8.0 15.0 0.00 0.30 0.14 30 1011.4
20260506003517 72 282 5.0 15.0 0.00 0.30 0.14 29 1011.4
20260506003013 73 250 7.0 14.0 0.00 0.30 0.14 29 1011.4
20260506002513 74 248 9.0 15.0 0.00 0.30 0.14 29 1011.4
20260506002029 74 256 8.0 17.0 0.00 0.30 0.14 27 1011.4
20260506001525 74 284 6.0 17.0 0.00 0.30 0.14 28 1011.4
20260506001022 74 250 7.0 15.0 0.00 0.30 0.14 27 1011.3
20260506000517 75 227 6.0 15.0 0.00 0.30 0.14 27 1011.3
20260506000045 76 290 6.0 16.0 0.00 0.30 0.14 28 1011.2
20260505235526 76 277 8.0 16.0 0.00 0.30 0.14 26 1011.2
20260505235026 76 269 8.0 16.0 0.00 0.30 0.14 26 1011.0
20260505234522 77 266 5.0 12.0 0.00 0.30 0.14 26 1011.0
20260505234018 75 232 5.0 16.0 0.00 0.30 0.14 26 1010.9
20260505233513 75 280 6.0 16.0 0.00 0.30 0.14 25 1010.9
20260505233029 76 225 6.0 16.0 0.00 0.30 0.14 25 1010.9
20260505232525 77 252 6.0 13.0 0.00 0.30 0.14 26 1011.0
20260505232021 76 262 6.0 13.0 0.00 0.30 0.14 26 1010.9
20260505231521 77 268 6.0 13.0 0.00 0.30 0.14 26 1011.0
20260505231017 77 219 5.0 15.0 0.00 0.30 0.14 24 1010.9
20260505230532 77 233 9.0 14.0 0.00 0.30 0.14 24 1011.0
20260505230040 76 258 6.0 15.0 0.00 0.30 0.14 25 1011.0
20260505225521 77 246 9.0 19.0 0.00 0.30 0.14 24 1011.0
20260505225016 78 262 7.0 19.0 0.00 0.30 0.14 26 1011.0
20260505224532 75 227 7.0 16.0 0.00 0.30 0.14 27 1010.9
20260505224027 76 226 8.0 16.0 0.00 0.30 0.14 25 1011.0
20260505223527 77 242 6.0 14.0 0.00 0.30 0.14 26 1011.0
20260505223023 76 205 8.0 14.0 0.00 0.30 0.14 28 1011.2
20260505222519 75 213 4.0 14.0 0.00 0.30 0.14 28 1011.3
20260505222015 74 256 5.0 22.0 0.00 0.30 0.14 30 1011.3
20260505221531 74 213 12.0 22.0 0.00 0.30 0.14 28 1011.3
20260505221026 75 273 7.0 19.0 0.00 0.30 0.14 30 1011.3
20260505220522 77 257 9.0 19.0 0.00 0.30 0.14 27 1011.5
20260505220034 76 292 10.0 17.0 0.00 0.30 0.14 29 1011.4
20260505215515 75 208 8.0 16.0 0.00 0.30 0.14 30 1011.4
20260505215031 73 220 6.0 16.0 0.00 0.30 0.14 31 1011.7
20260505214527 75 234 5.0 15.0 0.00 0.30 0.14 30 1011.9
20260505214022 75 127 5.0 15.0 0.00 0.30 0.14 29 1011.9
20260505213518 76 228 6.0 16.0 0.00 0.30 0.14 29 1011.9
20260505213014 76 233 8.0 16.0 0.00 0.30 0.14 29 1012.1
20260505212513 76 204 5.0 17.0 0.00 0.30 0.14 30 1012.2
20260505212029 75 246 10.0 18.0 0.00 0.30 0.14 30 1012.1
20260505211524 76 206 11.0 19.0 0.00 0.30 0.14 29 1012.3
20260505211020 76 227 13.0 19.0 0.00 0.30 0.14 27 1012.4
20260505210516 77 235 7.0 20.0 0.00 0.30 0.14 29 1012.1
20260505210044 75 229 11.0 20.0 0.00 0.30 0.14 30 1012.3
20260505205525 75 250 8.0 20.0 0.00 0.30 0.14 30 1012.3
20260505205025 75 204 8.0 22.0 0.00 0.30 0.14 29 1012.4
20260505204521 76 246 10.0 22.0 0.00 0.30 0.14 29 1012.4
20260505204017 76 239 10.0 20.0 0.00 0.30 0.14 28 1012.4
20260505203513 76 257 11.0 21.0 0.00 0.30 0.14 29 1012.4
20260505203029 76 281 11.0 22.0 0.00 0.30 0.14 29 1012.4
20260505202525 75 244 11.0 22.0 0.00 0.30 0.14 28 1012.3
20260505202020 76 276 7.0 25.0 0.00 0.30 0.14 27 1012.3
20260505201520 76 242 11.0 26.0 0.00 0.30 0.14 27 1012.4
20260505201016 75 280 15.0 26.0 0.00 0.30 0.14 29 1012.4
20260505200532 75 279 13.0 24.0 0.00 0.30 0.14 29 1012.3
20260505200039 74 269 14.0 24.0 0.00 0.30 0.14 30 1012.4
20260505195519 75 280 10.0 24.0 0.00 0.30 0.14 31 1012.4
20260505195015 76 213 10.0 26.0 0.00 0.30 0.14 33 1012.5
20260505194531 75 210 11.0 26.0 0.00 0.30 0.14 33 1012.5
20260505194026 74 252 14.0 24.0 0.00 0.30 0.14 35 1012.5
20260505193526 74 217 10.0 21.0 0.00 0.30 0.14 36 1012.6
20260505193022 75 327 11.0 18.0 0.00 0.30 0.14 36 1012.6
20260505192518 74 238 10.0 19.0 0.00 0.30 0.14 40 1012.6
20260505192013 74 229 7.0 21.0 0.00 0.30 0.14 40 1012.7
20260505191528 73 236 10.0 21.0 0.00 0.30 0.14 43 1012.7
20260505191024 74 242 9.0 20.0 0.00 0.30 0.14 43 1012.7
20260505190520 74 222 11.0 18.0 0.00 0.30 0.14 41 1012.9
20260505190031 73 231 10.0 17.0 0.00 0.30 0.14 43 1012.9
20260505185513 74 238 9.0 17.0 0.00 0.30 0.14 43 1013.0
20260505185028 73 251 7.0 17.0 0.00 0.30 0.14 45 1013.0
20260505184524 73 250 8.0 15.0 0.00 0.30 0.14 46 1013.1
20260505184020 73 265 4.0 10.0 0.00 0.30 0.14 50 1013.2
20260505183516 72 243 3.0 14.0 0.00 0.30 0.14 50 1013.4
20260505183032 71 194 4.0 14.0 0.00 0.30 0.14 49 1013.2
20260505182512 72 204 4.0 13.0 0.00 0.30 0.14 49 1013.5
20260505182028 70 111 3.0 12.0 0.00 0.30 0.14 52 1013.5
20260505181524 70 200 5.0 10.0 0.00 0.30 0.14 51 1013.5
20260505181020 71 76 2.0 5.0 0.00 0.30 0.14 51 1013.7
20260505180516 70 235 0.0 8.0 0.00 0.30 0.14 54 1013.9
20260505180044 70 232 2.0 8.0 0.00 0.30 0.14 56 1014.0
20260505175525 69 250 2.0 5.0 0.00 0.30 0.14 56 1014.0
20260505175025 67 196 1.0 4.0 0.00 0.30 0.14 57 1014.1
20260505174521 67 148 2.0 4.0 0.00 0.30 0.14 59 1014.0
20260505174017 66 148 1.0 6.0 0.00 0.30 0.14 61 1014.1
20260505173512 66 112 4.0 7.0 0.00 0.30 0.14 60 1014.0
20260505173028 67 100 1.0 4.0 0.00 0.30 0.14 61 1014.1
20260505172524 67 262 2.0 4.0 0.00 0.30 0.14 59 1014.2
20260505172020 67 281 0.0 3.0 0.00 0.30 0.14 62 1014.1
20260505171519 67 281 2.0 7.0 0.00 0.30 0.14 61 1014.2
20260505171015 67 279 3.0 7.0 0.00 0.30 0.14 62 1014.1
20260505170530 67 358 0.0 4.0 0.00 0.30 0.14 63 1014.1
20260505170038 66 358 1.0 4.0 0.00 0.30 0.14 62 1014.0
20260505165519 66 41 0.0 2.0 0.00 0.30 0.14 64 1014.0
20260505165015 65 41 0.0 3.0 0.00 0.30 0.14 65 1014.0
20260505164531 64 42 2.0 4.0 0.00 0.30 0.14 67 1014.2
20260505164027 65 66 1.0 4.0 0.00 0.30 0.14 70 1014.1
20260505163602 65 35 2.0 4.0 0.00 0.30 0.14 70 1014.0
20260505163018 64 14 2.0 4.0 0.00 0.30 0.14 70 1013.9
20260505162514 64 337 2.0 3.0 0.00 0.30 0.14 72 1013.9
20260505162030 63 330 0.0 3.0 0.00 0.30 0.14 72 1014.1
20260505161526 63 330 2.0 3.0 0.00 0.30 0.14 73 1014.1
20260505161022 63 326 0.0 3.0 0.00 0.30 0.14 73 1014.2
20260505160518 63 326 2.0 4.0 0.00 0.30 0.14 74 1014.2
20260505153031 63 263 0.0 4.0 0.00 0.30 0.14 78 1014.0
20260505152527 63 261 0.0 4.0 0.00 0.30 0.14 79 1014.0
20260505152028 63 254 0.0 4.0 0.00 0.30 0.14 82 1014.0
20260505151523 63 254 1.0 4.0 0.00 0.30 0.14 83 1013.9
20260505151019 62 251 1.0 4.0 0.00 0.30 0.14 83 1013.9
20260505150515 62 235 0.0 3.0 0.00 0.30 0.14 85 1014.0
20260505140531 60 114 0.0 1.0 0.00 0.30 0.14 91 1013.8